Theta_e
315 316 317 317 309 309 309 310 310 312 315 312 314 313 313 312 311 310 310 309 310 311 311 314 313 313 314 316 317 316 321 322 320 319 318 315 319 314 315 316 316 319 316 318 326
316 316 315 317 308 309 309 310 310 309 309 310 314 313 312 312 312 310 310 309 310 311 313 315 312 314 315 315 316 319 321 321 318 318 319 317 318 317 317 317 317 317 316 318 324
315 316 316 313 308 309 309 309 309 309 309 310 310 314 312 311 310 310 310 309 310 311 314 314 312 315 315 315 315 316 320 317 315 313 315 316 315 315 318 318 318 318 317 317 321
315 316 315 312 309 309 309 308 308 308 308 309 309 311 312 311 310 311 310 309 310 312 314 312 312 313 315 317 313 317 313 315 313 313 313 316 315 316 316 318 316 316 316 317 319
315 315 314 310 309 308 308 308 308 308 308 308 308 310 310 308 309 310 312 309 312 312 313 311 313 313 315 315 313 315 313 312 312 312 313 313 315 316 315 316 315 315 315 316 319
314 315 311 310 309 308 308 308 308 308 308 308 308 308 307 309 309 309 312 311 313 311 312 311 313 313 312 311 314 311 312 312 311 312 311 313 312 311 313 312 313 314 314 315 317
314 314 311 311 309 308 307 307 307 308 307 307 307 307 308 309 309 310 313 313 313 310 311 312 313 312 312 313 311 311 313 313 312 312 313 312 314 314 312 311 311 311 312 314 315
314 314 308 311 308 307 307 307 307 307 307 307 307 307 309 307 309 312 313 313 311 310 311 312 312 313 312 311 312 313 314 315 311 312 312 312 316 311 310 310 311 311 312 312 314
314 313 312 310 308 307 307 307 307 307 307 307 307 308 308 308 309 310 312 312 311 310 311 312 313 312 311 314 314 312 314 313 311 311 313 313 314 311 311 311 312 312 312 311 312
313 313 311 313 308 307 307 307 307 307 307 307 308 309 307 309 309 310 311 311 311 312 313 313 312 314 313 314 314 315 311 311 312 312 312 314 314 314 312 311 313 314 313 313 313
313 313 314 313 307 307 307 307 307 308 308 308 308 308 308 310 311 310 311 312 312 312 314 310 314 313 314 313 310 313 312 312 310 310 313 314 314 314 314 312 313 314 314 314 314
312 312 313 308 307 307 306 308 307 307 308 307 308 309 309 311 311 310 311 312 312 312 311 313 312 312 308 308 311 311 312 312 310 310 312 312 313 314 314 314 314 314 314 314 312
313 312 313 309 307 307 307 307 307 307 308 307 308 309 310 311 310 310 311 310 311 311 312 312 310 308 309 309 311 310 312 311 311 309 309 310 313 313 311 308 309 309 310 310 311
313 313 312 311 309 307 307 307 307 308 309 308 308 308 310 311 310 311 311 310 309 311 310 311 306 309 310 310 311 311 309 310 310 312 312 308 312 314 312 311 309 309 309 310 311
313 312 311 309 308 307 307 307 308 307 308 309 307 307 310 310 309 311 310 311 310 309 310 311 308 309 310 311 309 311 309 310 310 312 313 312 312 313 308 312 312 311 311 311 311
312 312 311 309 308 307 307 308 309 309 311 309 309 309 310 308 309 309 311 310 308 310 308 309 307 309 309 306 308 307 310 309 309 311 313 312 312 313 312 311 310 309 312 311 311
312 311 311 309 308 307 309 310 312 315 308 311 310 309 310 309 310 310 311 310 311 311 311 310 310 308 308 310 308 308 313 313 313 314 312 306 309 313 310 307 309 309 313 310 311
313 312 312 309 308 308 311 310 313 309 309 310 310 309 310 310 309 309 311 311 309 309 310 310 310 310 309 310 311 310 312 314 317 313 312 306 311 312 309 309 308 308 310 310 310
310 312 312 311 307 307 311 311 314 309 311 312 309 309 309 309 310 310 311 311 311 308 310 310 309 308 307 307 310 310 311 309 308 302 313 312 311 311 308 308 310 310 310 309 309
306 305 308 312 307 308 310 312 310 307 311 310 312 310 310 310 310 310 311 310 310 307 306 309 310 308 307 308 307 309 309 311 310 316 316 310 310 312 311 311 312 311 310 308 309
306 304 305 310 312 310 310 311 309 310 312 311 311 310 309 310 310 310 311 308 309 308 306 307 311 310 308 310 311 308 309 308 310 313 320 314 312 310 312 312 313 312 310 308 309
304 306 304 309 305 302 308 309 309 310 312 313 311 310 310 310 310 310 310 309 307 306 308 308 311 312 311 307 306 307 310 310 312 311 309 310 312 308 307 311 313 311 308 308 309
303 304 306 305 306 306 304 309 309 311 312 314 314 312 310 310 311 310 309 309 308 308 309 308 313 314 311 309 309 310 308 310 309 310 315 316 313 308 308 309 310 310 307 308 309
301 303 303 304 302 306 307 308 309 308 309 309 312 312 313 311 312 310 309 310 311 309 309 307 310 312 312 310 311 311 309 308 310 315 312 312 312 311 310 311 310 309 308 307 308
297 298 300 304 303 305 306 307 309 309 308 309 309 312 314 314 313 313 311 312 311 311 310 309 313 309 310 310 311 312 311 309 310 311 312 312 311 311 312 312 311 309 308 307 307
296 298 298 299 302 304 306 307 308 307 309 309 310 310 311 314 313 312 311 312 313 311 311 310 312 309 308 310 309 311 310 310 310 311 311 311 311 308 311 311 310 309 307 306 305
296 298 298 299 301 303 304 304 306 306 306 307 308 308 309 309 307 308 308 310 311 313 312 311 310 313 315 309 311 312 311 310 310 310 311 311 311 309 308 310 309 309 307 306 306
Wind_Speed
26 25 25 25 29 30 29 28 27 28 23 18 28 19 14 16 6 5 16 15 11 5 14 15 14 13 14 9 7 6 4 5 8 7 6 10 7 4 5 3 5 7 2 4 18
27 27 26 25 29 29 29 29 28 27 25 23 27 21 12 11 11 11 12 14 12 14 14 18 17 15 7 7 6 5 4 8 5 5 6 12 7 9 6 5 6 6 9 6 20
28 27 26 27 30 30 29 29 28 26 25 23 25 22 16 12 9 14 13 17 13 13 15 16 14 15 5 6 5 3 6 6 6 4 6 12 6 6 7 6 10 12 12 12 18
29 27 25 28 30 30 29 28 27 27 24 23 23 24 23 14 6 12 13 18 14 14 16 16 17 9 6 7 4 5 3 5 7 7 7 10 8 6 9 2 4 11 8 14 16
29 28 27 28 30 29 29 27 27 26 25 24 23 27 24 17 21 7 10 18 17 17 18 18 17 9 5 7 6 2 6 5 8 10 8 8 4 3 10 11 10 5 11 14 16
29 29 30 30 31 31 29 27 27 26 24 24 22 23 20 15 19 16 12 17 18 20 20 18 12 12 7 5 2 4 8 9 5 6 5 4 3 2 4 10 15 16 13 13 17
31 30 30 29 32 31 29 27 25 23 23 20 21 20 19 15 9 13 14 17 16 18 21 18 13 9 11 7 6 10 5 5 3 3 3 2 5 8 8 7 6 9 16 16 15
32 31 32 29 31 30 28 25 23 21 19 19 18 19 7 17 11 12 15 19 16 16 17 16 15 11 4 14 4 5 3 6 3 4 2 4 12 2 5 11 15 11 10 17 17
30 30 30 30 31 28 26 23 20 19 17 16 16 11 4 11 14 14 16 20 19 17 16 16 14 6 8 7 4 1 6 6 3 1 2 6 5 2 3 3 8 10 11 12 13
28 32 31 29 32 30 26 23 20 17 16 14 9 8 8 9 16 17 16 19 18 19 16 9 5 4 5 7 11 10 5 3 4 4 2 4 12 8 8 9 10 10 10 13 13
28 32 30 31 33 32 31 28 18 8 23 7 9 3 11 14 18 17 18 20 20 15 6 3 5 13 16 8 2 8 5 6 3 1 4 8 12 14 15 10 15 16 15 17 16
28 32 31 33 33 32 34 21 23 11 8 7 9 5 12 15 9 18 22 9 11 10 6 5 12 5 8 8 7 8 6 4 3 2 3 2 13 12 16 15 15 16 17 18 16
32 31 31 33 33 34 36 22 24 22 6 7 6 8 9 13 6 22 22 10 6 8 9 10 2 14 7 7 7 3 5 4 1 2 2 5 9 6 4 8 11 13 15 16 18
32 31 32 33 33 37 35 24 22 15 4 6 7 7 10 9 3 18 19 7 3 7 6 3 2 9 10 7 4 6 6 6 7 3 3 2 5 5 3 9 5 5 4 5 6
30 33 36 39 20 38 31 24 22 11 6 10 6 11 16 10 12 10 15 4 9 8 6 6 10 11 8 6 6 3 6 6 3 3 2 2 5 4 2 9 5 8 2 1 3
32 32 35 37 19 34 31 28 21 4 8 6 6 9 8 3 4 9 9 7 7 4 5 4 1 2 3 5 1 13 9 6 4 1 5 6 6 7 5 3 3 5 3 3 6
33 32 35 33 26 35 33 27 5 7 5 8 5 7 9 5 5 3 10 11 8 7 7 2 2 1 4 10 5 2 10 3 4 5 5 2 4 10 5 4 4 2 1 4 7
37 30 34 28 26 38 34 7 5 7 6 4 5 12 10 9 2 2 11 12 7 4 6 9 6 9 4 3 9 7 7 5 7 5 2 2 8 4 2 1 4 4 3 5 7
19 39 37 29 36 39 24 10 6 6 10 10 9 11 7 4 5 5 11 15 13 11 8 8 6 1 1 2 6 7 7 3 7 1 2 5 5 10 7 7 4 8 7 6 6
11 3 16 31 44 37 13 13 5 3 6 9 7 7 13 11 8 9 12 7 7 10 1 7 4 1 1 1 2 4 11 4 2 5 5 5 5 8 6 11 10 10 11 7 7
20 7 5 23 35 29 15 8 3 3 3 5 5 6 7 10 8 8 10 3 6 11 4 6 3 2 2 8 12 5 6 1 3 3 4 3 5 5 9 11 14 13 11 10 11
9 3 11 13 4 4 6 6 4 5 2 2 3 5 8 10 8 10 14 2 5 17 12 4 4 5 8 1 3 2 8 10 6 6 3 1 6 0 2 11 16 15 13 13 13
6 5 12 11 4 4 1 3 3 5 5 3 3 1 2 7 5 7 6 1 4 9 13 9 4 4 2 2 0 7 6 8 2 2 8 6 8 2 0 10 12 16 14 16 16
6 3 3 6 4 4 4 4 4 1 3 4 4 2 5 3 2 8 5 1 1 2 2 7 3 12 15 6 7 8 8 7 9 4 16 11 19 4 7 12 14 15 16 17 17
3 2 2 4 5 6 3 4 7 4 1 3 3 1 5 4 4 4 4 5 2 1 2 3 6 5 8 1 4 5 13 17 16 26 13 25 19 15 16 17 25 22 20 21 22
4 4 4 4 9 8 8 6 6 4 6 4 5 9 4 6 3 7 8 6 4 3 4 1 2 2 1 2 3 2 8 18 24 24 21 24 20 2 20 21 19 24 25 24 24
6 10 6 5 6 6 6 9 11 9 2 3 9 6 5 6 6 6 5 2 5 7 6 7 6 4 4 5 4 4 22 14 14 17 17 20 30 8 8 18 25 29 30 29 28
Wind_Direction
193 192 189 189 189 188 190 188 187 185 182 166 169 156 164 150 181 181 262 270 230 207 187 186 186 185 180 188 188 189 188 177 176 183 139 155 168 155 185 160 178 197 207 194 178
195 192 190 188 186 187 188 185 186 189 193 184 170 167 164 191 191 250 231 271 224 215 197 188 180 176 178 179 182 211 186 185 176 171 160 162 178 157 185 183 203 206 210 185 184
195 193 190 189 181 187 187 186 185 190 191 187 177 174 193 201 233 234 242 238 219 200 194 189 182 170 176 169 182 195 189 155 169 169 158 154 170 165 185 204 217 217 204 197 192
195 193 189 187 182 185 186 186 186 189 192 192 184 183 186 193 202 225 248 208 201 190 188 182 178 171 170 175 180 158 85 151 148 159 146 158 144 189 209 187 197 214 208 217 205
193 193 190 185 184 184 187 185 186 189 191 189 191 187 193 197 228 238 232 190 188 188 190 181 176 168 180 164 148 125 143 107 132 139 132 151 156 209 241 230 237 213 215 219 218
193 194 191 185 186 184 185 186 187 187 191 187 189 185 190 213 224 224 212 188 189 185 184 185 188 191 127 149 205 102 134 123 132 121 119 183 154 237 247 241 238 234 225 225 225
195 195 190 185 186 183 183 185 186 187 186 186 183 186 196 213 230 208 197 190 192 188 181 183 179 165 141 122 119 126 108 126 117 139 102 157 231 227 244 237 230 234 224 223 226
198 195 188 186 185 184 181 183 180 181 183 182 182 183 209 215 213 197 186 186 183 188 188 174 165 142 126 124 75 114 143 180 124 173 128 207 244 216 235 244 248 236 222 226 221
199 191 184 185 181 181 179 177 172 173 175 177 182 178 212 200 195 191 181 181 173 174 170 161 155 118 126 145 124 104 184 201 165 150 145 208 244 160 189 251 263 243 228 223 215
197 186 183 182 178 174 172 168 162 161 162 165 187 183 217 198 185 183 174 169 157 156 143 156 119 130 154 186 189 177 163 167 200 152 236 216 250 246 236 257 259 251 234 221 218
195 185 183 183 175 169 164 151 143 153 165 194 201 170 151 168 171 177 172 164 155 157 160 124 179 192 181 178 134 144 151 156 121 112 189 246 263 267 269 252 255 250 246 248 250
190 185 185 178 174 171 171 168 174 169 167 189 160 150 159 157 145 175 167 164 162 160 137 155 210 175 102 127 123 126 156 159 117 99 228 269 271 262 260 257 245 241 246 256 262
187 184 182 172 171 176 178 175 171 157 128 190 168 184 163 173 153 173 179 163 148 146 186 181 154 145 137 142 143 125 171 172 102 124 71 304 274 243 235 254 259 252 251 255 261
185 184 180 170 176 179 184 174 168 162 152 175 199 196 176 162 138 174 176 169 114 159 152 130 114 149 140 167 152 182 174 133 126 177 233 323 281 271 218 263 235 239 221 251 263
185 181 179 176 182 181 180 173 167 166 205 153 164 173 173 175 138 178 173 146 153 144 191 159 161 153 176 184 171 141 131 129 98 126 279 198 262 255 4 264 217 156 136 195 175
184 182 179 180 179 178 169 164 156 149 229 158 141 166 141 115 108 140 169 143 112 92 42 73 4 135 118 72 65 142 107 78 83 136 245 215 238 249 208 238 147 137 114 147 151
175 182 182 181 179 171 169 154 130 199 147 172 173 174 156 140 120 198 175 165 161 152 168 121 142 63 141 107 110 213 160 121 200 203 245 73 225 265 241 206 162 82 78 140 149
175 181 190 179 178 172 166 170 186 160 185 111 133 138 175 146 152 141 157 183 219 104 144 170 204 178 175 187 167 185 206 170 191 199 175 107 232 235 152 352 248 217 179 147 147
137 171 187 183 171 176 165 200 196 179 142 142 130 149 178 179 136 158 190 200 198 185 167 171 194 15 42 148 167 170 209 82 100 37 252 210 248 268 222 236 178 159 150 142 145
190 83 144 187 172 176 171 205 170 151 127 152 157 185 177 175 155 188 170 185 192 187 211 181 115 11 125 139 26 210 138 139 210 193 227 226 268 240 206 199 177 169 158 150 144
150 131 136 191 175 175 194 190 154 178 168 167 137 143 173 171 175 188 196 162 192 178 173 141 121 125 163 218 177 150 178 161 175 194 207 260 243 219 224 180 176 173 164 155 148
132 105 157 153 107 80 183 155 139 155 167 118 101 110 163 162 165 187 198 235 174 153 189 167 111 155 193 35 349 328 202 182 194 201 251 344 253 29 254 183 173 167 166 161 154
93 101 136 189 146 150 59 130 139 146 173 150 104 57 121 155 147 200 168 95 166 177 169 175 180 113 129 222 224 219 190 221 205 63 202 195 251 27 117 182 175 167 171 168 162
128 124 74 145 141 119 132 140 133 12 92 73 106 105 119 130 10 166 142 160 168 195 160 165 128 207 217 214 138 203 192 200 198 199 228 231 250 165 188 186 183 183 175 174 171
86 93 126 158 180 139 125 136 154 159 86 106 57 331 132 130 168 138 136 129 95 182 128 201 198 194 244 340 169 194 191 190 202 225 215 244 242 236 199 196 196 184 180 183 180
118 131 94 87 136 133 156 185 160 151 160 179 155 175 161 159 167 174 150 168 171 164 180 179 135 116 225 107 190 228 210 204 213 227 230 248 257 269 196 205 186 191 187 188 185
123 123 135 139 146 167 193 166 187 147 218 170 169 142 153 178 137 121 75 93 151 173 177 166 145 137 225 151 120 280 226 205 219 231 224 235 243 179 189 199 201 197 198 191 186